Location: Unspecified
(0.0000°N, 0.0000°E)
Time: 13:44:17
(UTC+00:00)

Vanguard 2 Rocket - Pass Details

Date: 20 November 2019
Orbit: 554 x 3326 km, 32.9° (Epoch: 08 December)

Event Time Altitude Azimuth Distance (km) Brightness Sun altitude
Rises 17:44:32 0° 222° (SW) 6,401 12.5 0.3°
Reaches altitude 10° 17:50:25 10° 211° (SSW) 4,886 11.5 -1.1°
Maximum altitude 18:00:17 26° 161° (SSE) 2,808 9.4 -3.4°
Drops below altitude 10° 18:06:45 10° 107° (ESE) 3,114 9.2 -5.0°
Enters shadow 18:08:51 - 96° (E) 3,579 9.4 -5.5°
Sets 18:09:31 0° 93° (E) 3,752 - -5.6°
